STARLINK-6180, 56887

Orbit data source: Space-Track

STARLINK-6180, 56887 is a payload satellite owned by SpaceX/Seattle (US) in LEO that was launched on Mon, 12 Jun 2023 UTC via an FALCON 9 launch vehicle from the Air Force Eastern Test Range (AFETR). Payload-class satellites include a variety of spacecraft equipped with specific instruments for various scientific and technological missions. These include communications satellites like Starlink; space stations such as the ISS; scientific satellites like the Hubble; Earth observation satellites from companies like Planet Labs, Umbra, and HawkEye 360; GPS; miniature CubeSats for education and research; and military/defense satellites.

Loading next visibility...
Identifier
56887, 2023-083M
Orbit
LEO
Country
Flag of USUS
Related business
Manufacturer
SpaceX/Seattle
Mission
Operational Commercial Communications
Bus & Motor
STARLINK, Unknown motor
Mass
305 kg wet, ~290 kg dry
Launch date (UTC)
2023-06-12 (3 years ago)
Launch vehicle
FALCON 9
Launch site
Air Force Eastern Test Range (AFETR)
Object type
Payload
Rocket body
Debris
Shape & HBR
Box + 1 Pan, 10.1 m
Radar Cross Section
11.087 m², Large (>1 m²)

Expand to show TLE details & history
Last TLE update: 3 days ago

TLE from 3 days ago
0 STARLINK-6180
1 56887U 23083M   26170.24372267 -.00000291  00000-0 -10237-5 0  9991
2 56887  43.0028 235.7786 0001977 279.8645  80.1983 15.27578698167119
Epoch: 2026-06-19T05:50Z
TLE epoch observation values (Epoch: 2026-06-19T05:50:57.638Z)
Latitude
-0.00006°
Longitude
-119.43711°
Altitude
482.598 km
Speed
7.626 km/s
True Right ascension
15h 43m 06s
True Declination
0° 00' 00"
Sunlit
Object was in full shadow at epoch
Visualization orbit readout
Latitude
Unknown
Longitude
Unknown
Altitude
Unknown
Speed
Unknown
Apparent Right ascension
Unknown
Apparent Declination
Unknown
Sunlit
N/A
Visualization observer readout
Local Sidereal Time
21:29:20
Azimuth
Unknown
Elevation
Unknown
Doppler factor
Unknown
Orbital elements
Apogee altitude
486.355 km
Perigee altitude
483.641 km
Semi-major axis
6,863.135 km
Eccentricity
0.0002
Inclination
43.0028°
RAAN
235.7786°
Arg. of periapsis
279.8645°
True anomaly
80.22062°
Mean anomaly
80.1983°
Eccentric anomaly
80.20946°
Mean motion
3.81733 °/min
Orbital period
94.31 mins
BSTAR
-0.0000010237
Loading maneuver chart data...
Computing Atmospheric mass density...
Loading historical data...
Loading historical data...
Loading historical data...
Loading historical data...
Loading historical data...
Loading historical data...
Loading historical data...

Documentation

Showing up to 5 results
|